Temp
63 62 62 62 62 62 62 62 62 62 61 61 61 61 59 59 56 55 55 56 57 60 63 60 62 64 65 64 65 65 66 63 61 63 62 62 61 59 58 58 59 59 59 60 60 58 58 59 58 60 61 61 61 62 60 59 58 57 58 62 63 61 59 59 58 60 63 66 65 61 60 59 59 58
62 61 61 62 62 62 62 61 62 62 62 61 61 61 61 60 58 57 55 56 59 59 62 63 62 63 64 64 64 66 65 62 62 63 62 62 61 58 57 56 56 56 57 58 57 55 56 59 59 61 60 60 60 58 57 57 57 57 59 63 63 60 60 58 58 59 59 59 60 60 59 58 58 58
62 61 61 62 62 62 61 62 62 62 62 62 61 61 61 60 60 59 58 55 57 61 59 62 65 63 64 66 65 65 65 62 63 63 62 62 60 58 58 56 56 56 56 56 56 56 56 56 57 59 60 60 59 58 58 57 57 58 61 60 60 60 60 60 59 61 61 62 62 61 59 59 59 59
62 61 61 62 62 62 62 62 62 61 62 63 62 61 61 61 61 60 57 56 57 59 61 62 63 65 64 65 64 64 64 62 61 63 62 62 59 59 60 56 56 56 55 56 56 58 56 55 57 58 59 59 59 58 59 58 58 59 58 56 57 57 58 58 58 61 62 62 62 62 59 59 59 59
62 61 61 61 62 63 62 61 62 62 62 62 62 62 61 60 60 59 58 57 57 57 60 61 62 64 65 62 65 63 62 60 61 61 62 61 60 60 60 59 56 55 55 55 54 55 54 55 59 58 58 59 59 58 57 56 56 54 55 55 56 56 58 58 57 59 61 61 61 60 58 58 58 59
62 61 61 61 61 62 62 62 62 62 62 61 61 61 61 60 59 61 60 59 58 57 56 59 61 61 64 62 65 62 60 60 61 62 61 61 61 61 60 58 57 54 55 54 53 54 53 53 56 55 55 55 55 55 54 54 53 54 53 50 54 55 57 57 55 55 58 59 58 57 57 57 57 57
61 61 60 61 61 61 61 61 61 61 61 62 61 61 61 61 60 61 61 59 57 58 57 60 60 60 61 62 63 64 63 61 62 61 60 60 61 62 60 59 59 54 54 53 52 53 53 53 54 53 53 53 53 54 53 53 53 52 52 49 51 53 55 55 55 54 57 58 57 56 55 56 56 56
61 60 60 60 60 60 60 60 60 60 61 60 60 60 60 60 61 61 61 61 60 59 59 58 60 60 60 60 64 65 64 61 60 62 61 61 61 61 60 59 59 55 53 53 53 53 53 53 53 53 52 53 53 53 52 52 52 52 51 51 51 51 52 51 51 52 54 56 55 55 54 55 56 57
61 61 60 60 60 60 59 60 60 60 60 61 60 60 60 60 61 61 61 61 60 58 58 58 59 60 61 62 63 64 61 60 61 61 61 60 60 60 59 60 61 56 53 53 53 52 52 52 52 52 52 52 52 52 52 52 52 51 51 51 50 50 50 51 51 52 52 51 52 54 54 54 56 57
60 61 61 61 61 60 60 60 60 60 60 60 60 60 60 61 61 60 60 60 59 59 59 58 57 58 59 58 60 64 62 60 60 60 60 60 60 59 57 58 60 59 55 54 54 52 52 52 52 52 52 52 51 51 51 51 51 51 51 50 50 50 49 50 50 50 49 50 51 52 53 52 54 56
59 61 61 61 61 61 61 60 60 60 60 60 60 60 60 60 60 59 60 60 59 58 58 58 58 58 59 59 58 62 63 62 61 57 55 56 60 58 57 56 58 58 55 54 53 53 53 54 53 52 51 51 51 51 51 51 51 50 50 49 48 47 47 48 48 50 49 50 50 49 48 48 50 53
58 60 61 61 61 61 61 61 61 61 60 60 60 60 60 59 59 59 59 59 58 58 57 57 56 56 57 58 60 63 62 58 57 60 58 54 55 56 56 57 56 56 54 53 53 52 51 51 52 51 51 51 51 51 51 51 51 50 49 48 48 48 47 47 47 49 49 49 47 46 45 46 47 47
58 59 60 60 61 62 63 58 58 59 59 60 59 60 60 59 59 59 58 58 58 58 58 57 57 56 56 56 57 56 56 57 57 60 60 56 57 57 56 57 59 57 54 54 53 53 53 52 52 52 51 52 51 51 51 52 52 51 49 48 48 48 48 47 48 48 48 49 48 46 45 46 47 45
53 54 57 60 62 58 56 55 52 51 53 56 60 60 60 59 59 58 58 58 58 58 57 56 56 55 56 57 58 58 59 60 58 56 57 55 55 57 55 55 56 57 55 53 51 53 54 53 53 53 53 54 53 52 51 53 53 51 48 48 48 47 47 47 48 47 47 47 47 46 46 45 45 45
50 50 50 50 53 57 58 57 53 49 48 49 50 52 55 58 60 58 57 58 58 57 57 57 57 57 56 57 60 59 60 59 59 59 58 55 54 55 52 51 52 56 56 53 52 52 53 53 52 52 53 54 53 53 53 52 51 50 48 48 48 47 47 47 47 46 46 45 46 45 45 45 45 45
47 48 48 49 50 50 51 54 51 52 50 46 46 46 47 49 50 53 58 58 58 58 57 56 56 57 58 58 59 59 59 58 59 58 55 55 55 53 54 55 54 55 57 53 51 51 52 54 53 52 53 54 54 55 53 51 49 49 48 48 47 47 47 47 47 46 46 45 45 45 44 44 44 43
46 46 46 46 46 47 50 50 47 46 49 50 46 46 46 46 46 46 47 51 60 60 58 57 57 57 58 57 58 60 60 59 58 56 55 56 55 57 54 55 57 52 58 55 51 50 51 52 51 52 53 54 54 55 51 50 49 49 48 48 47 47 47 47 47 46 46 46 46 45 45 45 44 44
44 45 45 44 43 44 46 46 44 43 44 48 53 53 53 55 53 47 47 47 49 54 60 59 58 60 61 60 60 61 60 59 58 57 57 58 57 56 55 57 57 56 58 56 53 48 48 51 51 51 52 53 53 53 51 49 49 48 47 47 47 47 46 46 46 46 46 45 45 45 45 45 44 44
44 44 45 44 42 43 43 45 42 41 42 44 50 55 56 56 57 55 55 55 55 56 59 60 60 60 61 62 62 63 62 63 63 62 61 60 58 55 53 55 56 55 58 58 55 53 51 51 50 51 48 49 51 50 49 48 48 48 47 47 46 46 46 46 45 45 45 45 45 44 43 43 43 43
44 44 45 44 42 41 42 42 39 40 40 44 50 55 56 56 56 56 51 45 47 52 58 60 60 59 59 56 58 59 61 61 62 60 56 56 57 57 56 57 53 53 55 58 57 53 46 50 52 45 45 46 46 44 47 47 48 48 47 46 46 46 46 45 45 45 45 44 44 44 43 42 42 42
43 43 45 44 41 40 41 40 38 38 39 45 50 54 56 56 55 55 49 43 41 41 39 44 49 49 48 49 50 48 51 56 56 56 56 55 58 56 54 54 51 52 51 53 56 51 47 48 47 45 44 43 42 42 43 45 47 47 47 46 46 46 46 45 44 45 44 44 44 43 43 42 42 42
42 43 45 45 42 40 40 39 38 38 40 43 46 50 55 56 55 54 50 50 45 40 41 40 40 41 42 43 44 46 48 49 54 59 56 58 57 56 56 54 51 48 48 50 51 53 47 48 47 45 44 46 44 44 43 44 45 46 46 46 46 46 45 44 44 44 44 44 43 43 43 43 44 44
40 41 42 43 41 40 39 38 38 38 40 41 44 46 50 54 55 55 50 49 48 49 50 50 50 48 47 50 50 47 46 48 54 61 62 59 58 57 56 55 48 47 48 52 52 54 46 49 47 48 44 41 44 44 44 45 45 45 45 45 45 45 44 44 44 45 44 44 44 44 44 44 44 43
39 39 39 40 39 38 38 38 38 38 38 40 43 45 47 51 55 53 51 50 50 51 50 49 49 48 48 48 48 48 49 50 50 48 54 58 60 59 58 55 54 53 48 49 50 55 47 51 49 51 49 45 41 43 43 45 46 46 45 44 43 44 44 44 44 44 44 44 44 44 44 44 44 44
38 37 37 38 39 38 37 38 38 38 38 39 42 41 41 44 47 48 51 49 49 50 49 48 48 47 47 47 46 46 46 46 47 47 46 47 51 58 57 55 54 50 45 49 48 55 48 50 50 49 48 47 46 44 43 45 46 45 46 46 44 45 46 45 45 44 44 43 43 44 44 44 45 44
37 37 37 37 38 37 37 38 38 38 38 38 41 39 37 38 37 49 52 51 50 49 48 47 47 47 46 46 45 45 45 45 45 44 46 47 47 48 53 57 54 49 48 48 46 55 51 49 52 51 48 47 46 47 44 44 45 45 46 46 46 46 47 46 46 46 46 46 45 45 45 44 44 44
37 38 37 38 39 37 37 37 38 38 38 39 38 38 38 38 40 47 50 49 49 47 47 46 46 45 45 44 44 44 44 44 45 46 46 47 47 47 47 47 49 49 47 48 49 52 54 49 50 51 48 48 46 45 45 44 44 46 46 46 46 47 46 47 46 46 46 45 44 43 43 43 43 43
37 37 37 38 37 37 37 37 37 38 38 37 37 38 39 39 41 47 48 47 46 44 44 44 45 45 45 45 44 44 46 45 46 46 47 47 47 47 47 47 47 48 49 49 49 50 54 51 49 50 50 48 45 44 44 45 45 45 44 45 45 45 45 46 45 45 44 44 44 44 44 43 43 42
37 38 37 37 37 37 37 37 38 38 38 37 37 38 39 41 41 42 43 44 44 43 42 42 42 43 43 44 44 46 46 46 47 46 46 47 47 47 47 46 46 47 48 48 48 48 50 51 50 50 50 49 47 47 46 44 44 43 43 42 42 43 44 45 45 43 43 43 43 44 44 43 43 43
38 38 38 38 37 38 38 38 37 37 37 37 37 38 39 40 39 39 40 41 41 40 40 40 41 41 42 43 44 45 46 45 44 46 46 45 45 46 46 45 44 45 45 46 47 48 48 48 49 49 48 48 48 47 46 44 42 43 43 43 43 43 44 44 43 43 43 43 43 43 43 43 43 42
37 38 39 38 37 38 38 37 38 37 38 37 37 37 37 38 38 39 38 38 39 39 40 40 40 41 42 43 43 43 43 43 43 44 45 45 44 45 45 44 42 42 43 44 45 46 47 48 48 49 47 45 45 45 44 44 42 42 42 43 43 40 42 43 43 43 43 43 42 42 41 41 41 41
37 37 38 38 38 38 37 37 37 37 37 36 36 36 36 37 37 38 39 39 38 39 40 40 40 40 41 41 41 42 42 42 42 43 43 44 43 44 44 42 40 41 41 42 43 44 43 45 45 46 46 46 43 43 44 43 42 42 42 42 43 43 43 42 42 42 42 42 41 40 40 40 40 39
36 36 36 35 36 36 34 34 34 34 35 35 35 36 35 35 36 36 36 35 35 36 38 38 38 38 40 40 40 41 41 40 41 43 43 43 43 44 44 41 40 40 39 39 40 42 43 43 43 43 43 44 46 45 43 41 42 42 41 41 42 42 42 43 42 41 42 41 40 39 38 39 39 39
34 34 33 34 34 34 34 33 33 33 33 34 34 34 34 34 34 34 35 35 35 36 36 37 37 37 37 38 39 40 39 40 41 41 40 42 42 41 40 39 39 40 39 39 40 41 42 43 44 44 44 43 43 43 44 42 40 41 41 42 42 41 41 42 42 42 42 41 39 37 37 37 37 36
33 33 33 34 34 34 34 33 33 33 33 33 33 33 34 34 33 34 34 34 35 36 36 37 37 37 37 36 37 37 38 39 40 40 40 41 41 40 40 39 39 39 39 39 39 41 42 43 43 42 42 42 42 42 44 43 41 40 41 41 41 41 40 42 41 42 42 40 40 37 35 35 35 35
34 34 34 34 34 34 33 33 33 33 33 33 33 33 34 33 33 33 33 34 35 34 35 36 36 36 36 36 37 37 37 38 38 39 39 39 39 39 40 39 39 39 40 40 40 41 41 41 41 39 37 37 37 36 37 42 42 41 40 38 40 40 41 41 42 42 41 38 40 38 35 35 35 36
35 35 35 34 34 33 33 34 33 33 33 33 33 33 33 33 33 34 35 35 35 34 35 35 36 36 36 37 37 37 37 37 37 37 37 37 38 38 38 37 37 38 39 40 41 41 41 39 40 38 37 36 35 33 34 37 39 41 42 39 38 40 40 40 39 38 38 40 38 38 36 35 35 35
35 35 34 34 33 32 32 33 33 34 34 34 34 34 34 34 34 35 36 35 35 35 36 36 36 36 36 36 36 37 37 36 36 36 36 37 37 36 36 36 36 36 37 38 39 40 40 39 38 38 37 35 34 33 34 35 35 38 38 42 39 36 38 38 37 36 35 35 36 34 35 36 36 36
37 36 35 35 34 33 32 32 32 33 34 34 34 34 34 35 35 35 35 34 35 35 36 36 36 36 36 36 36 36 36 37 37 36 36 35 36 36 36 36 36 36 37 37 38 39 39 38 38 38 37 36 35 36 37 36 34 37 36 39 40 37 36 38 36 35 36 34 34 35 34 34 35 35
37 37 37 36 36 35 34 33 33 33 33 34 34 35 35 35 35 35 36 36 36 36 36 35 36 36 36 36 36 36 36 36 36 36 35 35 35 35 35 36 36 36 36 36 36 36 37 37 38 38 38 38 38 37 37 37 34 35 35 37 39 41 38 36 36 36 34 35 36 35 33 34 33 33
37 37 37 37 37 37 35 35 34 33 33 34 34 35 35 35 35 35 35 35 35 35 36 36 35 35 36 36 36 36 35 36 36 36 36 36 35 36 36 36 36 36 36 35 35 35 35 37 36 36 38 37 37 39 39 37 36 35 35 35 37 38 39 40 40 37 34 34 35 35 34 33 31 31
37 36 36 38 38 38 37 36 35 33 33 33 33 33 34 34 34 36 36 36 35 36 36 35 35 36 36 35 35 35 35 35 35 35 35 36 36 36 36 36 36 35 37 36 36 36 36 38 37 40 39 38 38 37 35 35 34 33 34 35 34 36 38 38 37 38 39 37 36 33 29 30 31 31
36 36 36 37 38 39 38 36 35 33 32 32 33 33 34 34 35 35 35 35 35 35 35 36 35 36 36 36 35 35 35 35 34 35 34 35 35 35 35 35 35 35 35 35 35 35 36 38 39 38 37 36 34 36 36 34 34 34 34 34 35 35 35 36 36 35 35 35 36 34 31 34 33 31
33 34 36 37 37 38 38 37 36 34 32 32 32 34 35 35 35 35 34 34 34 34 34 35 35 35 35 35 35 36 34 34 35 35 35 34 34 34 34 34 34 35 34 34 35 35 35 36 36 38 37 35 34 35 34 34 33 34 34 33 34 34 35 35 34 36 36 35 34 36 37 37 36 37
33 34 35 36 36 37 38 38 37 35 32 31 32 32 32 33 33 34 34 34 34 34 34 34 34 35 35 35 36 36 35 36 35 34 34 34 33 34 34 34 34 34 34 34 35 35 35 35 35 35 35 35 35 36 35 35 34 33 33 33 33 33 33 35 36 34 34 34 34 34 35 37 37 37
MSLP
1013.35 1013.23 1013.11 1013.07 1012.95 1012.91 1012.99 1013.19 1013.31 1013.35 1013.43 1013.47 1013.63 1013.87 1014.23 1014.55 1014.87 1015.35 1015.35 1015.19 1015.23 1014.87 1014.67 1015.11 1014.91 1014.87 1015.07 1015.27 1015.55 1015.87 1015.99 1016.11 1016.43 1016.67 1016.91 1017.19 1017.43 1017.71 1017.87 1018.07 1018.31 1018.63 1018.95 1019.19 1019.43 1019.67 1019.91 1020.07 1020.31 1020.47 1020.67 1021.03 1021.43 1021.75 1021.95 1022.15 1022.31 1022.47 1022.59 1022.63 1022.71 1022.83 1023.03 1023.31 1023.47 1023.67 1023.79 1023.91 1024.03 1024.19 1024.35 1024.55 1024.71 1024.83
1013.03 1012.91 1012.87 1012.71 1012.59 1012.55 1012.71 1012.87 1013.07 1013.27 1013.31 1013.39 1013.43 1013.55 1013.67 1013.99 1014.39 1014.43 1014.83 1014.71 1014.35 1014.47 1014.43 1014.43 1014.63 1014.67 1014.79 1014.95 1015.27 1015.43 1015.63 1015.87 1016.11 1016.35 1016.59 1016.95 1017.15 1017.47 1017.71 1017.91 1018.15 1018.47 1018.75 1018.99 1019.27 1019.55 1019.79 1019.95 1020.19 1020.39 1020.63 1020.99 1021.35 1021.67 1021.91 1022.11 1022.31 1022.47 1022.59 1022.63 1022.67 1022.83 1022.99 1023.23 1023.47 1023.63 1023.79 1023.99 1024.11 1024.23 1024.39 1024.51 1024.63 1024.75
1012.63 1012.47 1012.39 1012.35 1012.27 1012.31 1012.31 1012.43 1012.75 1013.03 1013.27 1013.15 1013.15 1013.27 1013.51 1013.83 1013.91 1013.95 1014.07 1014.51 1013.95 1013.87 1014.39 1014.19 1014.03 1014.27 1014.43 1014.63 1014.95 1015.27 1015.43 1015.67 1015.83 1016.03 1016.35 1016.67 1016.87 1017.23 1017.59 1017.75 1017.99 1018.27 1018.55 1018.83 1019.15 1019.43 1019.67 1019.83 1020.07 1020.31 1020.55 1020.91 1021.27 1021.63 1021.83 1022.07 1022.27 1022.43 1022.55 1022.63 1022.71 1022.79 1022.95 1023.19 1023.39 1023.59 1023.79 1023.95 1024.11 1024.27 1024.39 1024.51 1024.63 1024.71
1012.39 1012.19 1012.07 1011.99 1012.03 1012.07 1012.15 1012.19 1012.39 1012.67 1012.91 1012.99 1012.91 1012.95 1013.11 1013.31 1013.51 1013.67 1013.91 1014.11 1013.99 1013.75 1013.67 1013.79 1013.83 1013.79 1014.15 1014.35 1014.79 1015.07 1015.31 1015.55 1015.67 1015.79 1016.07 1016.35 1016.71 1017.23 1017.47 1017.67 1017.79 1018.07 1018.31 1018.63 1018.95 1019.23 1019.51 1019.71 1019.95 1020.23 1020.47 1020.83 1021.19 1021.51 1021.75 1021.99 1022.19 1022.35 1022.47 1022.63 1022.75 1022.83 1022.95 1023.15 1023.35 1023.51 1023.71 1023.91 1024.11 1024.23 1024.39 1024.51 1024.55 1024.63
1012.19 1012.03 1011.91 1011.75 1011.71 1011.83 1011.95 1011.99 1012.11 1012.19 1012.31 1012.43 1012.47 1012.51 1012.67 1012.95 1013.15 1013.35 1013.67 1014.03 1013.91 1013.71 1013.47 1013.55 1013.63 1013.63 1013.83 1014.59 1014.51 1014.83 1015.15 1015.51 1015.75 1015.83 1016.11 1016.47 1016.79 1016.99 1017.23 1017.59 1017.75 1017.87 1018.11 1018.43 1018.79 1019.11 1019.39 1019.59 1019.79 1020.07 1020.35 1020.67 1021.03 1021.35 1021.63 1021.87 1022.15 1022.31 1022.47 1022.63 1022.79 1022.87 1022.95 1023.11 1023.27 1023.47 1023.67 1023.87 1024.03 1024.19 1024.35 1024.43 1024.51 1024.59
1012.07 1011.95 1011.83 1011.71 1011.51 1011.47 1011.63 1011.67 1011.75 1011.75 1011.87 1011.99 1012.15 1012.19 1012.31 1012.55 1012.79 1012.79 1013.27 1013.39 1013.55 1013.59 1013.55 1013.59 1013.51 1013.79 1013.75 1014.19 1014.15 1014.47 1014.87 1015.23 1015.43 1015.75 1016.11 1016.35 1016.51 1016.71 1017.07 1017.47 1017.75 1017.83 1017.91 1018.23 1018.59 1018.91 1019.23 1019.43 1019.63 1019.91 1020.23 1020.55 1020.91 1021.23 1021.51 1021.75 1021.99 1022.23 1022.39 1022.59 1022.75 1022.83 1022.91 1023.07 1023.27 1023.47 1023.63 1023.83 1023.99 1024.11 1024.27 1024.35 1024.43 1024.51
1012.03 1011.91 1011.75 1011.59 1011.47 1011.47 1011.51 1011.55 1011.63 1011.67 1011.63 1011.59 1011.71 1011.83 1011.95 1012.15 1012.31 1012.55 1012.71 1013.03 1013.31 1013.35 1013.39 1013.19 1013.47 1013.67 1013.67 1013.83 1013.99 1014.07 1014.27 1014.55 1014.83 1015.39 1015.79 1016.03 1016.39 1016.63 1016.91 1017.23 1017.47 1017.79 1017.83 1018.07 1018.43 1018.75 1019.03 1019.27 1019.47 1019.75 1020.07 1020.39 1020.75 1021.07 1021.31 1021.55 1021.79 1022.07 1022.27 1022.47 1022.63 1022.75 1022.87 1023.03 1023.23 1023.43 1023.59 1023.75 1023.91 1024.03 1024.19 1024.31 1024.39 1024.43
1011.99 1011.75 1011.59 1011.43 1011.39 1011.43 1011.47 1011.43 1011.47 1011.47 1011.47 1011.47 1011.51 1011.55 1011.51 1011.79 1011.99 1012.15 1012.35 1012.43 1012.63 1012.79 1012.99 1013.15 1013.11 1013.19 1013.35 1013.55 1013.51 1013.75 1014.07 1014.51 1014.87 1014.87 1015.19 1015.63 1016.03 1016.39 1016.83 1017.11 1017.31 1017.63 1017.83 1017.95 1018.23 1018.55 1018.83 1019.11 1019.35 1019.63 1019.91 1020.23 1020.59 1020.87 1021.11 1021.31 1021.55 1021.83 1022.03 1022.27 1022.47 1022.63 1022.83 1022.99 1023.15 1023.31 1023.47 1023.63 1023.79 1023.95 1024.07 1024.19 1024.27 1024.27
1011.95 1011.67 1011.55 1011.39 1011.31 1011.27 1011.27 1011.23 1011.23 1011.23 1011.23 1011.15 1011.15 1011.15 1011.31 1011.55 1011.63 1011.71 1011.79 1011.95 1012.27 1012.83 1012.91 1012.87 1012.83 1012.83 1012.91 1012.91 1013.11 1013.35 1013.95 1014.47 1014.67 1014.91 1015.19 1015.55 1015.91 1016.31 1016.63 1016.95 1017.15 1017.43 1017.83 1017.87 1018.07 1018.43 1018.71 1018.99 1019.23 1019.55 1019.83 1020.11 1020.43 1020.71 1020.95 1021.15 1021.39 1021.63 1021.83 1022.03 1022.23 1022.43 1022.67 1022.87 1023.03 1023.19 1023.39 1023.55 1023.71 1023.83 1023.99 1024.07 1024.11 1024.07
1012.07 1011.63 1011.47 1011.35 1011.23 1011.19 1011.15 1010.99 1010.95 1011.03 1010.99 1010.91 1010.87 1010.71 1010.79 1011.15 1011.31 1011.31 1011.35 1011.59 1012.03 1012.39 1012.39 1012.71 1013.11 1012.87 1012.91 1013.11 1013.03 1013.03 1013.35 1013.91 1014.51 1014.95 1015.23 1015.67 1015.99 1016.35 1016.83 1017.03 1017.11 1017.43 1017.91 1018.15 1018.27 1018.47 1018.71 1018.91 1019.15 1019.43 1019.75 1020.03 1020.31 1020.59 1020.79 1021.03 1021.27 1021.47 1021.63 1021.83 1022.03 1022.27 1022.51 1022.71 1022.91 1023.07 1023.27 1023.43 1023.55 1023.71 1023.87 1023.95 1023.95 1023.91
1012.31 1011.67 1011.35 1011.19 1011.11 1011.03 1010.95 1010.87 1010.79 1010.71 1010.63 1010.59 1010.55 1010.55 1010.71 1010.87 1011.03 1011.11 1011.19 1011.43 1011.91 1012.03 1012.19 1012.47 1012.55 1012.51 1012.43 1012.55 1012.99 1012.99 1013.11 1013.35 1013.51 1014.27 1015.27 1015.87 1015.91 1016.19 1016.51 1016.95 1017.11 1017.31 1017.75 1017.87 1017.83 1018.03 1018.35 1018.63 1018.99 1019.27 1019.59 1019.91 1020.19 1020.47 1020.71 1020.91 1021.15 1021.35 1021.55 1021.71 1021.91 1022.15 1022.35 1022.55 1022.75 1022.91 1023.11 1023.27 1023.43 1023.59 1023.71 1023.75 1023.79 1023.83
1012.39 1011.79 1011.31 1011.07 1010.95 1010.83 1010.75 1010.67 1010.55 1010.51 1010.47 1010.35 1010.35 1010.39 1010.51 1010.59 1010.87 1010.95 1010.95 1011.15 1011.59 1012.03 1012.27 1012.27 1012.35 1012.39 1012.51 1012.67 1012.55 1012.63 1013.11 1013.75 1014.11 1014.15 1014.19 1014.87 1015.63 1016.03 1016.31 1016.47 1016.83 1017.11 1017.55 1017.91 1018.19 1018.35 1018.63 1018.87 1019.11 1019.43 1019.71 1019.95 1020.15 1020.39 1020.63 1020.83 1020.99 1021.19 1021.39 1021.63 1021.83 1022.03 1022.19 1022.39 1022.55 1022.75 1022.91 1023.11 1023.31 1023.43 1023.51 1023.59 1023.67 1023.83
1012.31 1011.71 1011.31 1011.03 1010.79 1010.63 1010.47 1010.35 1010.27 1010.11 1009.99 1009.99 1009.99 1009.95 1009.95 1010.11 1010.39 1010.59 1010.79 1010.87 1011.23 1011.51 1011.75 1011.87 1011.87 1012.03 1012.27 1012.47 1012.59 1012.95 1013.07 1013.03 1013.07 1013.55 1013.91 1014.39 1014.83 1015.39 1016.07 1016.31 1016.43 1016.67 1017.07 1017.51 1017.87 1018.15 1018.35 1018.79 1019.11 1019.35 1019.71 1019.79 1020.03 1020.31 1020.47 1020.63 1020.79 1020.95 1021.19 1021.47 1021.71 1021.91 1022.07 1022.27 1022.43 1022.63 1022.83 1023.03 1023.19 1023.31 1023.39 1023.51 1023.63 1023.83
1013.27 1012.83 1012.07 1011.39 1010.95 1010.75 1010.55 1010.39 1010.27 1010.15 1009.91 1009.71 1009.63 1009.63 1009.67 1009.79 1010.11 1010.23 1010.39 1010.43 1010.47 1010.83 1011.27 1011.47 1011.55 1011.99 1012.15 1012.11 1012.19 1012.19 1012.15 1012.35 1012.95 1013.47 1013.79 1014.31 1014.79 1015.35 1015.91 1016.15 1016.19 1016.35 1016.83 1017.23 1017.67 1017.75 1018.03 1018.35 1018.79 1019.11 1019.27 1019.39 1019.79 1020.03 1020.39 1020.35 1020.35 1020.55 1020.91 1021.27 1021.59 1021.83 1022.03 1022.23 1022.39 1022.59 1022.79 1022.95 1023.11 1023.23 1023.31 1023.43 1023.59 1023.75
1014.07 1013.63 1013.31 1012.95 1012.19 1011.39 1010.95 1010.59 1010.23 1009.99 1009.91 1009.71 1009.51 1009.47 1009.31 1009.31 1009.51 1009.83 1010.07 1009.99 1009.87 1010.15 1010.43 1010.79 1011.11 1011.23 1011.43 1011.55 1011.51 1011.67 1011.83 1012.15 1012.35 1012.71 1013.11 1013.79 1014.51 1014.99 1015.67 1016.15 1015.95 1016.07 1016.31 1016.91 1017.11 1017.55 1017.71 1018.07 1018.43 1018.67 1018.79 1018.99 1019.31 1019.59 1019.67 1019.75 1020.11 1020.39 1020.71 1021.03 1021.31 1021.59 1021.83 1022.03 1022.23 1022.43 1022.67 1022.87 1022.99 1023.07 1023.23 1023.39 1023.55 1023.67
1014.87 1014.39 1013.91 1013.47 1013.07 1012.67 1012.15 1011.47 1011.23 1010.59 1009.91 1009.51 1009.39 1009.39 1009.43 1009.19 1009.11 1009.07 1009.23 1009.47 1009.63 1009.55 1009.71 1010.15 1010.55 1010.79 1010.83 1010.95 1011.15 1011.27 1011.55 1011.87 1012.23 1012.55 1013.07 1013.43 1013.59 1014.15 1014.71 1014.79 1014.91 1014.95 1015.55 1016.39 1016.95 1017.15 1017.47 1017.67 1017.91 1018.27 1018.31 1018.51 1018.63 1018.75 1018.83 1019.39 1019.95 1020.31 1020.59 1020.87 1021.19 1021.47 1021.71 1021.91 1022.11 1022.35 1022.55 1022.71 1022.83 1022.99 1023.27 1023.47 1023.63 1023.75
1015.55 1015.03 1014.43 1013.91 1013.59 1013.19 1012.51 1011.99 1011.95 1011.67 1010.91 1009.95 1009.43 1009.23 1009.35 1009.47 1009.27 1009.03 1008.99 1009.03 1008.87 1008.95 1009.31 1009.43 1009.67 1010.19 1010.39 1010.67 1010.59 1010.47 1010.71 1011.11 1011.71 1012.31 1012.99 1013.19 1013.23 1013.31 1013.71 1013.95 1014.15 1014.79 1014.87 1015.79 1016.51 1016.75 1017.03 1017.31 1017.59 1017.75 1017.71 1017.99 1018.15 1018.35 1018.75 1019.23 1019.63 1019.99 1020.31 1020.67 1020.99 1021.27 1021.55 1021.79 1022.03 1022.27 1022.43 1022.59 1022.75 1023.07 1023.27 1023.43 1023.63 1023.83
1015.91 1015.51 1015.07 1014.67 1014.27 1013.75 1013.23 1012.67 1012.43 1012.11 1011.63 1010.91 1009.87 1009.31 1009.19 1009.15 1009.11 1009.11 1008.91 1008.87 1008.87 1008.83 1008.91 1008.99 1009.19 1008.99 1009.43 1009.67 1009.51 1009.75 1010.15 1010.71 1011.15 1011.67 1012.07 1012.31 1012.71 1013.03 1013.27 1013.31 1013.63 1014.23 1014.55 1014.79 1015.47 1016.15 1016.67 1016.91 1017.19 1017.31 1017.19 1017.47 1017.75 1017.95 1018.27 1018.71 1019.11 1019.55 1019.95 1020.31 1020.63 1020.99 1021.31 1021.59 1021.87 1022.11 1022.27 1022.51 1022.79 1023.03 1023.23 1023.43 1023.67 1023.87
1016.39 1015.95 1015.55 1015.23 1014.95 1014.39 1013.79 1013.31 1013.27 1012.79 1012.07 1011.43 1010.31 1009.35 1008.91 1008.83 1008.63 1008.63 1008.71 1008.87 1008.83 1008.83 1008.71 1008.55 1008.31 1008.47 1008.71 1008.79 1008.95 1009.19 1009.51 1009.63 1009.83 1009.99 1010.27 1010.67 1011.39 1012.39 1013.07 1013.51 1013.75 1014.31 1014.23 1014.31 1014.99 1015.11 1015.51 1016.47 1016.95 1016.87 1017.07 1017.35 1017.51 1017.75 1018.07 1018.43 1018.87 1019.27 1019.67 1020.03 1020.43 1020.75 1021.07 1021.39 1021.67 1021.91 1022.23 1022.55 1022.79 1022.99 1023.23 1023.47 1023.75 1023.95
1016.63 1016.23 1015.71 1015.43 1015.19 1014.75 1014.27 1013.75 1013.43 1012.99 1012.43 1011.39 1010.15 1009.11 1008.51 1008.51 1008.39 1008.23 1008.47 1008.75 1008.79 1008.71 1008.63 1008.47 1008.43 1008.59 1008.83 1008.95 1009.11 1008.99 1009.07 1009.35 1009.67 1010.23 1010.95 1011.63 1012.47 1012.59 1012.95 1013.15 1013.43 1013.71 1014.11 1014.19 1014.31 1014.39 1015.11 1015.91 1016.11 1016.99 1017.51 1017.51 1017.63 1017.99 1018.03 1018.19 1018.47 1018.95 1019.39 1019.83 1020.23 1020.59 1020.91 1021.27 1021.55 1021.91 1022.19 1022.43 1022.67 1022.87 1023.19 1023.47 1023.75 1023.99
1016.99 1016.59 1016.07 1015.71 1015.51 1015.07 1014.51 1014.07 1013.59 1012.95 1012.43 1011.39 1010.19 1009.07 1008.31 1008.15 1008.15 1007.99 1008.43 1008.79 1008.79 1008.71 1008.67 1008.55 1008.39 1008.47 1008.59 1008.75 1009.15 1009.35 1009.19 1009.11 1009.63 1010.27 1011.03 1011.59 1011.71 1012.11 1012.59 1012.75 1013.11 1013.19 1013.79 1013.99 1013.95 1014.15 1014.91 1015.87 1016.15 1017.23 1017.75 1017.91 1018.11 1018.27 1018.27 1018.35 1018.51 1018.75 1019.15 1019.59 1020.03 1020.43 1020.87 1021.19 1021.63 1021.87 1022.11 1022.31 1022.59 1022.87 1023.15 1023.47 1023.75 1023.95
1017.27 1016.87 1016.43 1015.99 1015.75 1015.39 1014.87 1014.35 1013.71 1013.11 1012.55 1011.67 1010.83 1009.87 1008.63 1007.95 1007.91 1008.03 1008.31 1008.43 1008.63 1008.75 1008.75 1008.79 1008.63 1008.59 1008.71 1008.79 1008.87 1008.83 1008.91 1009.15 1009.19 1009.51 1010.11 1010.39 1011.07 1011.39 1011.55 1012.07 1012.71 1013.19 1013.75 1013.63 1013.87 1014.11 1014.91 1015.79 1016.19 1017.11 1017.95 1017.95 1018.39 1018.59 1018.67 1018.71 1018.91 1019.23 1019.55 1019.83 1020.15 1020.55 1020.95 1021.31 1021.51 1021.75 1022.03 1022.35 1022.67 1022.99 1023.27 1023.51 1023.75 1023.99
1017.51 1017.07 1016.67 1016.31 1016.03 1015.75 1015.27 1014.59 1013.87 1013.31 1012.79 1012.11 1011.27 1010.51 1009.59 1008.35 1007.67 1007.47 1008.07 1008.31 1008.51 1008.63 1008.59 1008.75 1008.71 1008.79 1008.95 1009.03 1009.03 1008.99 1008.95 1008.75 1008.59 1008.67 1008.95 1009.67 1010.31 1010.67 1010.91 1011.27 1012.31 1013.07 1013.39 1013.07 1013.39 1013.63 1015.51 1015.59 1015.99 1015.87 1016.87 1018.11 1018.55 1018.71 1018.87 1018.99 1019.19 1019.51 1019.83 1020.31 1020.71 1020.91 1021.11 1021.31 1021.47 1021.71 1022.03 1022.35 1022.67 1022.95 1023.19 1023.39 1023.67 1024.11
1017.67 1017.39 1016.95 1016.43 1016.03 1015.79 1015.23 1014.63 1014.03 1013.51 1013.03 1012.43 1011.47 1010.79 1010.03 1008.91 1007.67 1007.51 1008.03 1008.35 1008.39 1008.67 1008.67 1008.71 1008.75 1008.79 1008.83 1009.03 1009.15 1009.27 1008.87 1008.87 1008.99 1008.99 1008.91 1008.95 1009.23 1009.67 1010.07 1010.75 1010.95 1010.99 1011.39 1012.19 1012.75 1012.87 1014.51 1014.47 1015.19 1015.19 1014.87 1016.07 1017.99 1018.83 1018.91 1019.19 1019.35 1019.67 1019.99 1020.47 1020.99 1021.31 1021.35 1021.51 1021.71 1021.83 1022.07 1022.35 1022.67 1022.87 1023.15 1023.51 1023.51 1023.87
1018.27 1017.79 1017.35 1016.87 1016.31 1015.87 1015.31 1014.75 1014.27 1013.71 1013.15 1012.51 1011.71 1011.23 1010.83 1009.87 1008.99 1008.31 1008.07 1008.47 1008.55 1008.75 1008.91 1009.07 1009.23 1009.27 1009.07 1009.19 1009.35 1009.55 1009.43 1009.35 1009.23 1009.11 1009.15 1009.15 1008.99 1008.95 1009.43 1010.19 1010.59 1010.59 1011.07 1011.51 1012.07 1012.47 1013.83 1014.27 1014.63 1014.95 1015.31 1015.59 1016.63 1018.03 1019.11 1019.35 1019.75 1019.95 1020.19 1020.35 1020.91 1021.31 1021.39 1021.71 1021.87 1022.23 1022.47 1022.67 1022.79 1023.03 1023.47 1023.55 1023.47 1023.71
1018.71 1018.31 1017.83 1017.27 1016.63 1016.15 1015.59 1015.07 1014.51 1013.91 1013.31 1012.59 1011.79 1011.31 1010.43 1009.23 1008.63 1008.31 1008.07 1008.39 1008.71 1009.07 1009.23 1009.19 1009.11 1009.19 1009.19 1009.39 1009.63 1009.75 1009.75 1009.87 1009.87 1009.71 1009.51 1009.31 1009.35 1009.47 1009.31 1009.19 1009.75 1010.43 1010.83 1011.59 1011.71 1011.71 1012.83 1014.11 1013.79 1014.27 1015.19 1015.83 1017.43 1017.15 1018.51 1019.59 1019.99 1020.31 1020.43 1020.63 1020.79 1021.11 1021.31 1021.75 1022.07 1022.43 1022.63 1022.87 1023.15 1023.35 1023.51 1023.59 1023.75 1023.91
1019.15 1018.67 1018.19 1017.63 1017.07 1016.51 1015.83 1015.27 1014.71 1014.15 1013.59 1012.79 1012.19 1011.27 1010.23 1009.31 1008.75 1008.39 1008.31 1008.47 1008.79 1009.15 1009.39 1009.43 1009.55 1009.71 1009.75 1009.79 1010.07 1010.23 1010.31 1010.23 1010.07 1009.83 1009.83 1009.71 1009.83 1009.99 1010.15 1010.27 1010.39 1010.59 1011.15 1011.51 1011.79 1011.75 1011.75 1012.71 1013.35 1013.23 1014.47 1015.07 1016.39 1017.95 1017.95 1018.59 1019.75 1020.31 1020.67 1021.03 1021.19 1021.39 1021.55 1021.67 1021.99 1022.31 1022.63 1023.03 1023.43 1023.59 1023.63 1023.75 1023.95 1024.19
1019.47 1018.99 1018.51 1017.99 1017.31 1016.75 1016.19 1015.59 1015.03 1014.47 1013.99 1013.51 1012.63 1011.67 1010.87 1010.19 1009.59 1009.15 1009.03 1008.99 1009.15 1009.43 1009.71 1009.91 1010.07 1010.27 1010.39 1010.35 1010.35 1010.39 1010.47 1010.47 1010.23 1010.07 1009.99 1010.07 1010.15 1010.23 1010.59 1010.87 1011.07 1011.35 1011.51 1011.75 1011.95 1011.99 1011.95 1012.23 1013.11 1013.39 1013.43 1014.51 1015.83 1016.75 1017.95 1018.47 1018.99 1019.51 1020.27 1021.03 1021.35 1021.63 1021.79 1021.91 1022.23 1022.59 1022.95 1023.27 1023.51 1023.63 1023.75 1024.03 1024.19 1024.31
1019.63 1019.19 1018.67 1018.07 1017.55 1017.03 1016.43 1015.87 1015.31 1014.79 1014.39 1013.87 1013.19 1012.43 1011.75 1011.11 1010.91 1010.67 1010.35 1010.15 1009.99 1010.07 1010.39 1010.59 1010.79 1010.87 1010.91 1010.83 1010.67 1010.59 1010.55 1010.75 1010.71 1010.39 1010.51 1010.63 1010.75 1010.79 1010.83 1011.19 1011.55 1011.83 1011.95 1012.07 1012.19 1012.43 1012.51 1012.39 1012.75 1013.39 1013.75 1013.83 1014.67 1015.75 1016.03 1017.23 1018.39 1019.59 1020.15 1020.71 1021.67 1021.95 1022.03 1022.11 1022.23 1022.63 1023.03 1023.35 1023.59 1023.79 1023.87 1023.99 1024.15 1024.27
1019.67 1019.27 1018.83 1018.35 1017.83 1017.31 1016.87 1016.27 1015.83 1015.43 1015.03 1014.51 1013.91 1013.35 1012.75 1012.31 1012.07 1011.99 1011.79 1011.47 1011.27 1011.43 1011.31 1011.15 1011.27 1011.39 1011.39 1011.35 1011.11 1010.83 1010.67 1010.75 1011.11 1011.15 1011.03 1010.99 1011.47 1011.27 1011.03 1011.31 1012.23 1012.43 1012.59 1012.63 1012.59 1012.75 1012.99 1013.31 1013.35 1013.63 1014.19 1014.75 1014.67 1015.47 1016.31 1017.23 1018.91 1019.59 1019.99 1020.39 1021.19 1021.87 1022.15 1022.31 1022.63 1022.91 1023.19 1023.47 1023.67 1023.83 1023.95 1023.95 1024.07 1024.23
1019.87 1019.43 1019.03 1018.71 1018.23 1017.75 1017.19 1016.71 1016.27 1015.79 1015.35 1014.91 1014.59 1014.31 1013.95 1013.63 1013.27 1012.91 1012.95 1012.87 1012.63 1012.43 1012.11 1011.91 1011.87 1011.79 1011.79 1011.79 1011.55 1011.27 1011.11 1011.19 1011.43 1011.39 1011.51 1011.63 1011.87 1011.67 1011.47 1011.67 1012.71 1013.19 1013.51 1013.39 1013.27 1013.31 1013.43 1013.75 1014.11 1013.95 1014.31 1015.15 1015.95 1016.47 1017.23 1017.47 1018.31 1019.27 1019.99 1020.43 1020.75 1021.43 1022.23 1022.63 1022.95 1023.27 1023.43 1023.55 1023.67 1023.91 1024.11 1024.19 1024.31 1024.39
1020.27 1019.75 1019.27 1018.79 1018.35 1017.87 1017.35 1016.99 1016.63 1016.39 1016.07 1015.87 1015.63 1015.31 1014.95 1014.59 1014.23 1013.87 1013.55 1013.39 1013.35 1013.23 1012.91 1012.59 1012.31 1012.23 1012.27 1012.51 1012.39 1011.87 1011.71 1011.79 1011.91 1011.79 1011.75 1011.95 1012.27 1012.31 1011.87 1012.27 1013.43 1013.63 1013.95 1014.11 1014.11 1014.11 1014.11 1014.39 1014.67 1014.95 1015.11 1015.15 1015.91 1016.99 1017.43 1018.07 1018.75 1019.35 1020.11 1020.63 1021.03 1021.55 1022.07 1022.59 1023.03 1023.35 1023.47 1023.63 1023.95 1024.23 1024.39 1024.43 1024.47 1024.67
1020.43 1019.95 1019.59 1019.27 1018.83 1018.51 1018.31 1017.95 1017.67 1017.31 1016.91 1016.63 1016.35 1016.07 1015.83 1015.51 1015.19 1014.95 1014.71 1014.71 1014.75 1014.47 1013.79 1013.47 1013.35 1013.31 1013.27 1013.35 1013.19 1012.71 1012.59 1012.71 1012.67 1012.47 1012.43 1012.71 1012.75 1012.91 1012.71 1013.23 1013.87 1014.07 1014.35 1014.87 1015.07 1015.15 1015.07 1015.19 1015.39 1015.75 1016.03 1016.47 1016.71 1016.83 1017.51 1018.79 1019.43 1019.63 1020.19 1020.95 1021.35 1021.95 1022.35 1022.59 1022.83 1023.27 1023.59 1023.83 1024.15 1024.35 1024.51 1024.67 1024.79 1024.95
1020.91 1020.67 1020.47 1020.15 1019.83 1019.43 1019.07 1018.79 1018.51 1018.19 1017.91 1017.59 1017.27 1017.03 1016.67 1016.35 1016.15 1016.03 1015.87 1015.71 1015.63 1015.27 1014.87 1014.51 1014.15 1014.19 1014.11 1014.19 1014.03 1013.63 1013.51 1013.39 1013.31 1013.27 1013.15 1013.51 1013.55 1013.47 1013.67 1014.11 1014.63 1014.87 1014.91 1015.31 1015.51 1015.75 1015.67 1015.67 1015.87 1016.27 1016.67 1017.35 1017.83 1018.19 1018.07 1018.47 1019.59 1019.99 1020.43 1020.83 1021.31 1022.03 1022.51 1022.67 1023.03 1023.27 1023.43 1023.55 1023.95 1024.47 1024.67 1024.79 1024.99 1025.07
1021.39 1021.23 1020.99 1020.75 1020.43 1020.11 1019.79 1019.55 1019.31 1019.03 1018.71 1018.43 1018.19 1017.91 1017.67 1017.43 1017.19 1016.95 1016.75 1016.67 1016.31 1015.83 1015.35 1014.99 1014.87 1014.83 1014.91 1014.99 1014.79 1014.59 1014.47 1014.23 1014.07 1013.99 1014.03 1014.07 1014.27 1014.47 1014.59 1014.75 1015.19 1015.39 1015.59 1015.87 1016.15 1016.19 1016.03 1016.11 1016.23 1016.75 1017.31 1017.79 1018.39 1019.11 1019.23 1019.23 1019.43 1020.35 1020.75 1021.15 1021.43 1021.91 1022.47 1022.75 1023.03 1023.27 1023.47 1023.79 1023.87 1024.19 1024.63 1024.71 1024.67 1024.79
1021.71 1021.55 1021.35 1021.19 1020.99 1020.75 1020.47 1020.23 1019.95 1019.67 1019.39 1019.11 1018.87 1018.59 1018.23 1018.15 1018.03 1017.83 1017.67 1017.43 1016.99 1016.75 1016.47 1016.19 1015.87 1015.63 1015.51 1015.43 1015.35 1015.27 1015.15 1014.95 1014.83 1014.75 1014.71 1014.79 1014.95 1015.23 1015.35 1015.55 1015.67 1015.87 1016.03 1016.31 1016.63 1016.71 1016.75 1016.91 1016.91 1017.35 1017.99 1018.47 1018.91 1019.63 1020.11 1020.15 1019.99 1020.11 1020.71 1021.51 1021.83 1022.11 1022.47 1022.75 1022.99 1023.23 1023.55 1023.79 1023.87 1023.87 1023.95 1024.23 1024.51 1024.75
1022.19 1021.95 1021.75 1021.63 1021.51 1021.35 1021.15 1020.87 1020.59 1020.27 1020.07 1019.79 1019.51 1019.27 1019.03 1018.83 1018.63 1018.39 1018.15 1017.79 1017.59 1017.51 1017.47 1017.23 1016.91 1016.51 1016.31 1016.11 1015.95 1015.91 1015.87 1015.75 1015.79 1015.75 1015.83 1015.95 1015.99 1016.03 1016.19 1016.47 1016.59 1016.71 1016.75 1017.03 1017.11 1017.23 1017.31 1017.59 1017.71 1017.99 1018.63 1019.31 1020.03 1020.67 1020.99 1020.83 1020.91 1020.91 1020.91 1021.39 1021.99 1022.15 1022.43 1022.75 1023.07 1023.39 1023.51 1023.59 1023.75 1023.59 1023.79 1024.23 1024.63 1024.91
1022.59 1022.39 1022.19 1022.03 1021.91 1021.79 1021.63 1021.43 1021.19 1020.91 1020.63 1020.39 1020.11 1019.83 1019.55 1019.35 1019.11 1018.91 1018.55 1018.27 1018.19 1018.07 1017.91 1017.79 1017.67 1017.43 1017.19 1016.99 1016.83 1016.75 1016.71 1016.75 1016.67 1016.67 1016.75 1016.75 1016.83 1017.07 1017.15 1017.27 1017.39 1017.51 1017.63 1017.67 1017.67 1017.87 1017.99 1018.31 1018.63 1019.07 1019.31 1020.03 1020.63 1021.03 1021.35 1021.23 1021.23 1021.43 1021.67 1021.39 1021.71 1022.31 1022.43 1022.63 1022.91 1023.15 1023.47 1023.67 1023.71 1023.99 1024.11 1024.23 1024.51 1024.83
1022.79 1022.67 1022.51 1022.35 1022.19 1022.03 1021.87 1021.67 1021.51 1021.31 1021.07 1020.87 1020.67 1020.43 1020.15 1019.79 1019.51 1019.31 1019.11 1019.03 1018.87 1018.71 1018.51 1018.35 1018.31 1018.19 1018.07 1017.95 1017.79 1017.67 1017.55 1017.39 1017.31 1017.39 1017.47 1017.55 1017.67 1017.75 1017.83 1017.83 1017.87 1017.91 1017.79 1017.91 1018.15 1018.31 1018.47 1018.71 1019.03 1019.27 1019.55 1019.95 1020.31 1020.55 1020.71 1021.19 1021.71 1021.99 1022.03 1021.91 1021.83 1022.15 1022.39 1022.31 1022.75 1023.15 1023.27 1023.79 1024.43 1024.59 1024.83 1025.03 1025.11 1025.27
1023.07 1022.83 1022.67 1022.51 1022.27 1022.15 1021.91 1021.71 1021.55 1021.39 1021.19 1021.03 1020.87 1020.63 1020.47 1020.27 1020.03 1019.83 1019.63 1019.51 1019.35 1019.19 1019.11 1019.07 1018.95 1018.83 1018.75 1018.67 1018.59 1018.43 1018.35 1018.27 1018.03 1017.91 1018.11 1018.23 1018.31 1018.43 1018.51 1018.51 1018.47 1018.43 1018.43 1018.47 1018.51 1018.71 1018.79 1019.07 1019.23 1019.43 1019.67 1019.95 1020.27 1020.59 1020.91 1021.31 1021.87 1022.19 1022.19 1022.23 1022.23 1021.91 1022.11 1022.31 1022.55 1022.91 1023.51 1023.91 1024.15 1024.31 1024.79 1024.87 1024.87 1025.23
1023.55 1023.23 1022.99 1022.71 1022.47 1022.31 1022.15 1021.91 1021.71 1021.59 1021.43 1021.31 1021.11 1020.87 1020.71 1020.55 1020.39 1020.19 1019.99 1019.83 1019.75 1019.63 1019.51 1019.31 1019.19 1019.19 1019.19 1019.03 1018.95 1018.95 1018.95 1018.83 1018.51 1018.31 1018.39 1018.59 1018.71 1018.79 1018.79 1018.71 1018.83 1018.71 1018.71 1018.95 1019.03 1019.15 1019.35 1019.59 1019.75 1019.83 1019.99 1020.43 1020.71 1020.91 1021.11 1021.47 1021.99 1022.27 1022.39 1022.59 1022.51 1022.39 1022.31 1022.19 1022.27 1022.59 1023.23 1023.87 1023.87 1024.15 1024.59 1024.71 1024.91 1025.11
1023.99 1023.71 1023.43 1023.11 1022.83 1022.55 1022.43 1022.27 1022.03 1021.83 1021.67 1021.55 1021.43 1021.31 1021.11 1020.91 1020.75 1020.51 1020.27 1020.07 1019.95 1019.87 1019.79 1019.71 1019.59 1019.39 1019.31 1019.35 1019.27 1019.07 1019.07 1019.03 1018.95 1018.87 1018.71 1018.67 1018.75 1018.87 1018.95 1018.99 1019.07 1019.07 1018.91 1019.07 1019.19 1019.55 1019.87 1019.95 1019.99 1020.03 1020.35 1020.55 1020.67 1020.87 1021.63 1021.87 1022.23 1022.51 1022.63 1022.67 1022.71 1022.75 1022.63 1022.59 1022.63 1022.67 1022.87 1023.31 1023.71 1024.23 1024.79 1025.07 1024.99 1025.07
1024.27 1024.03 1023.75 1023.47 1023.11 1022.83 1022.67 1022.55 1022.39 1022.19 1021.87 1021.71 1021.59 1021.59 1021.43 1021.27 1021.11 1020.99 1020.83 1020.63 1020.47 1020.31 1020.15 1019.95 1019.91 1019.75 1019.55 1019.47 1019.51 1019.47 1019.31 1019.31 1019.43 1019.39 1019.35 1019.19 1019.07 1019.07 1019.27 1019.47 1019.47 1019.43 1019.39 1019.51 1019.71 1019.83 1019.99 1020.07 1020.15 1020.35 1020.51 1020.59 1020.91 1020.99 1021.55 1021.95 1022.11 1022.35 1022.55 1022.67 1022.75 1022.75 1022.83 1022.99 1023.11 1023.27 1023.51 1023.67 1023.63 1023.51 1023.55 1023.79 1024.39 1024.79
1024.67 1024.39 1024.07 1023.79 1023.47 1023.23 1022.91 1022.75 1022.63 1022.55 1022.23 1021.91 1021.75 1021.67 1021.67 1021.55 1021.47 1021.35 1021.19 1021.07 1020.95 1020.79 1020.55 1020.23 1020.19 1020.15 1019.83 1019.71 1019.55 1019.55 1019.67 1019.51 1019.43 1019.51 1019.59 1019.55 1019.51 1019.59 1019.67 1019.79 1019.83 1019.87 1019.91 1019.91 1019.95 1020.07 1020.23 1020.35 1020.47 1020.43 1020.55 1020.79 1021.11 1021.43 1021.75 1021.99 1022.19 1022.31 1022.51 1022.71 1022.79 1022.79 1022.91 1023.11 1023.39 1023.59 1023.71 1023.87 1024.03 1023.95 1023.79 1023.75 1023.75 1023.67
1024.75 1024.59 1024.31 1023.99 1023.79 1023.51 1023.27 1022.99 1022.83 1022.75 1022.59 1022.23 1021.99 1021.91 1021.91 1021.87 1021.79 1021.59 1021.43 1021.31 1021.19 1021.07 1020.91 1020.75 1020.55 1020.35 1020.11 1020.07 1019.99 1019.95 1020.07 1019.99 1019.99 1020.11 1020.07 1019.91 1019.87 1019.91 1019.99 1019.99 1020.03 1020.07 1020.15 1020.15 1020.07 1020.23 1020.31 1020.43 1020.63 1020.71 1020.83 1021.11 1021.19 1021.47 1021.79 1021.87 1022.11 1022.43 1022.55 1022.63 1022.79 1022.95 1022.99 1023.11 1023.19 1023.51 1023.83 1024.15 1024.27 1024.23 1024.11 1024.03 1023.99 1024.11
Wind_Speed
11 9 12 9 8 9 8 8 7 6 7 7 7 7 9 8 8 6 8 7 7 6 8 7 8 9 8 7 7 10 9 9 11 9 8 9 9 14 17 17 16 16 17 17 17 15 15 18 15 16 16 16 15 13 13 13 13 12 12 12 11 9 11 11 11 11 10 10 9 6 6 8 7 6
9 9 8 9 9 7 6 7 7 6 7 7 8 9 7 7 10 8 8 8 7 6 6 6 5 8 8 7 7 8 9 12 14 10 9 9 10 16 17 17 17 17 17 17 16 15 16 18 15 16 16 16 15 13 13 13 12 11 11 11 10 10 12 11 10 9 6 5 6 6 5 6 6 5
9 10 10 9 9 7 7 7 7 7 6 7 8 8 8 8 8 8 6 7 4 6 8 8 5 8 10 8 7 7 8 11 14 10 9 10 13 17 15 18 17 17 17 17 16 14 16 17 16 17 17 16 14 13 13 13 12 10 11 11 10 11 12 11 9 7 7 7 6 5 4 5 4 4
8 8 9 8 7 5 7 8 7 7 8 8 8 8 9 9 9 7 5 6 6 6 8 8 8 9 10 9 9 8 7 9 16 9 10 11 14 12 9 16 18 18 18 17 15 15 16 17 17 17 16 16 15 13 14 14 12 12 13 11 11 11 11 11 10 8 7 6 5 4 4 4 5 5
9 9 8 7 6 5 6 6 6 7 8 8 8 8 7 8 8 8 7 9 9 4 4 5 8 8 10 8 9 10 8 9 9 7 7 8 9 10 9 10 16 18 18 17 16 15 16 17 17 17 17 16 16 15 15 14 13 13 12 11 10 10 11 10 9 8 6 5 4 3 3 4 3 3
6 6 7 8 8 6 6 5 8 8 8 8 7 8 8 8 8 9 8 9 8 8 3 5 3 5 8 11 11 11 11 10 10 9 8 6 9 10 8 8 9 17 18 18 17 16 17 17 17 17 17 16 15 15 15 15 14 13 12 11 11 10 10 10 9 7 6 5 5 4 4 2 1 2
6 6 6 6 5 6 7 6 5 4 5 7 9 8 6 8 9 9 9 8 8 8 7 7 7 8 10 10 11 11 11 12 13 12 10 9 8 7 8 9 8 14 17 18 17 17 17 17 17 17 17 16 16 16 16 16 15 14 13 12 11 11 10 9 9 8 7 7 6 4 3 1 2 2
7 7 8 8 6 5 6 6 5 6 6 6 7 8 9 9 9 8 9 11 9 8 8 7 8 8 10 8 9 10 9 10 10 10 10 9 9 9 8 8 8 11 17 18 18 17 17 17 16 17 17 16 16 16 17 16 16 15 14 13 13 12 10 9 9 9 8 7 6 4 3 2 3 5
9 7 7 7 5 5 5 5 5 5 7 8 8 9 8 7 8 7 9 10 9 7 9 6 6 7 8 9 10 10 10 8 10 9 9 10 10 9 8 7 7 11 16 17 18 17 17 16 16 16 16 16 16 17 16 16 16 16 15 15 14 12 11 10 10 9 8 7 6 4 4 4 4 6
10 7 7 7 7 6 7 7 6 7 9 9 9 11 10 7 7 9 9 9 8 10 10 7 5 6 8 6 7 11 11 12 9 8 6 5 6 7 7 7 7 6 8 7 9 11 13 15 16 16 16 16 17 16 16 15 15 15 15 15 14 13 11 11 10 9 8 8 7 5 5 4 5 7
11 9 7 7 7 6 6 6 6 7 9 9 11 11 9 8 7 8 9 9 8 10 9 7 8 8 8 9 10 9 10 11 12 13 9 7 7 7 8 9 6 5 7 9 13 13 13 14 13 15 16 16 16 16 15 15 15 15 15 14 13 12 12 11 11 10 9 8 7 6 6 6 5 6
10 10 8 6 6 7 7 6 7 7 8 8 9 8 8 8 8 8 8 7 8 7 8 8 8 5 7 6 4 7 9 8 5 8 12 13 11 9 8 9 9 7 8 9 6 5 7 8 10 10 12 13 14 15 14 15 15 15 14 13 12 12 12 12 11 11 10 8 8 7 7 6 6 4
11 10 8 7 6 7 11 10 9 9 10 9 9 8 9 9 9 8 7 7 7 8 9 8 6 8 8 7 8 9 10 13 14 12 9 9 10 9 8 8 7 8 10 9 8 8 9 8 8 7 8 9 12 12 14 12 16 16 14 13 12 12 12 11 11 10 9 8 8 7 7 6 5 4
15 15 15 12 16 13 12 13 13 13 14 15 11 8 8 9 8 9 7 8 8 7 7 8 8 8 9 10 10 11 12 9 7 10 10 10 9 8 7 5 6 7 8 9 10 9 7 9 8 8 9 8 9 8 9 10 12 15 15 13 12 12 11 11 10 9 9 8 8 8 7 6 5 5
13 11 12 12 18 18 15 12 15 13 14 16 16 14 13 11 10 9 9 9 8 8 8 8 9 10 11 11 11 11 10 9 12 13 12 10 9 10 10 10 4 5 10 8 9 9 7 9 10 10 10 9 9 9 11 15 15 14 14 14 14 13 12 12 11 10 9 9 9 9 8 7 6 5
11 12 11 10 9 10 14 12 13 15 14 14 15 14 13 14 13 13 11 10 9 9 9 9 10 10 11 11 10 10 10 11 10 10 10 12 14 12 11 10 11 7 12 9 8 9 6 9 9 9 10 9 9 12 15 16 14 13 14 14 13 12 12 11 11 10 10 10 10 9 7 6 6 6
12 11 10 11 10 10 21 14 13 12 13 13 13 14 13 13 13 13 13 12 12 10 10 11 10 9 9 9 11 12 12 11 12 10 10 10 10 12 14 12 9 5 13 10 8 9 8 10 10 10 9 9 9 11 12 13 15 15 14 15 14 14 12 12 12 12 12 11 10 8 7 7 7 7
12 11 10 11 11 11 12 11 13 14 12 12 10 8 7 7 9 13 15 15 15 12 11 12 12 14 11 13 13 13 12 14 14 13 15 14 12 12 13 10 7 5 11 14 10 6 7 9 9 11 9 9 9 8 11 16 16 16 16 16 16 15 14 13 13 13 13 11 9 9 9 9 9 9
11 12 10 10 10 11 9 9 16 15 14 13 11 9 7 7 8 9 10 10 10 9 8 11 14 11 11 12 11 12 13 16 15 16 19 18 13 8 4 2 2 5 10 10 9 11 7 7 8 9 5 6 7 6 9 15 15 16 16 16 16 15 15 15 15 14 12 11 11 11 12 12 12 12
11 11 11 12 11 12 11 16 21 18 14 12 11 10 8 6 6 8 1 0 4 5 7 8 8 7 6 6 5 9 12 12 8 5 6 10 5 8 9 11 7 7 8 9 11 6 4 9 10 4 2 3 4 0 3 13 18 18 17 17 16 16 17 16 15 13 13 13 15 16 16 15 14 13
11 11 13 12 11 12 11 18 21 20 17 11 11 10 9 6 5 7 1 2 2 4 8 9 8 8 10 14 12 10 15 12 10 9 9 11 10 10 11 10 7 8 7 8 9 4 5 6 6 5 3 3 2 2 1 3 12 17 17 18 18 18 16 15 14 14 15 16 17 17 17 16 15 14
10 12 21 19 13 13 13 21 21 21 16 11 10 11 11 8 7 5 3 1 3 5 6 6 8 7 6 6 9 15 19 18 15 12 13 14 12 12 11 11 10 5 6 9 6 5 4 6 6 7 3 5 3 3 2 4 7 11 12 15 17 16 15 15 16 15 16 18 17 17 17 16 14 8
10 11 12 19 18 17 17 21 20 21 17 10 10 10 11 10 10 7 6 4 3 3 4 3 6 7 6 4 3 2 7 17 19 16 15 11 13 12 11 9 7 5 5 9 9 9 5 9 6 8 5 3 2 3 3 5 6 7 7 8 9 13 15 15 15 15 18 18 18 17 16 15 12 7
11 11 11 13 18 21 21 20 21 20 19 12 9 9 8 9 10 2 5 5 5 4 4 4 3 5 5 3 2 2 5 5 4 3 6 12 13 12 12 10 12 12 9 8 10 10 5 9 10 5 5 9 4 2 3 6 6 6 8 9 8 10 12 13 11 16 18 17 17 17 15 14 11 8
11 11 11 10 17 22 21 20 21 21 20 16 9 8 8 8 9 2 5 4 5 5 4 4 5 4 5 5 4 4 4 3 2 4 3 1 5 10 12 10 11 8 4 8 13 9 8 9 9 5 4 4 8 9 2 4 4 6 7 9 10 6 7 7 7 8 12 15 15 15 13 12 13 10
10 11 11 11 17 21 20 20 20 21 20 19 10 12 15 14 10 8 5 7 6 6 5 5 4 4 5 4 4 5 5 5 4 3 3 6 6 5 1 10 13 9 6 7 13 12 10 9 11 10 6 8 5 10 11 4 4 5 6 6 8 8 9 9 8 8 8 7 7 7 9 11 11 12
10 9 10 11 19 19 20 19 19 19 22 15 15 20 21 20 10 1 4 6 7 6 5 5 5 4 4 5 5 5 5 5 4 6 6 7 9 8 8 10 7 5 5 5 5 6 11 10 10 14 11 12 14 6 9 11 7 7 8 7 7 7 7 8 9 8 7 7 7 11 10 10 11 10
9 9 10 12 18 18 18 18 18 18 20 17 21 20 22 21 17 8 5 5 6 7 7 7 6 5 4 4 5 5 4 3 5 6 7 8 9 11 11 11 11 8 8 7 5 3 6 11 9 8 16 16 16 15 11 4 7 9 10 8 7 7 6 8 8 8 7 7 6 6 6 6 5 7
9 12 17 18 18 17 18 17 16 15 18 22 21 21 20 18 13 11 8 7 6 7 7 7 7 6 6 5 5 5 6 4 5 8 9 9 10 11 13 12 11 10 9 8 8 6 3 7 11 10 10 13 15 12 14 13 12 9 10 12 9 7 7 7 8 8 7 6 6 5 6 6 5 5
15 15 15 17 16 14 14 12 11 11 14 18 20 21 19 12 13 12 11 9 9 8 6 7 8 6 5 5 4 5 6 8 7 5 7 10 8 8 11 13 11 10 10 9 9 8 8 6 7 10 9 6 9 13 11 14 10 9 10 10 10 7 5 7 7 7 7 7 6 5 4 4 5 5
10 11 12 11 12 12 15 15 14 14 15 15 14 12 12 12 11 11 11 10 9 8 7 7 7 6 6 5 6 7 8 9 7 6 6 7 6 7 9 13 10 10 9 9 10 9 9 9 6 7 12 11 10 9 9 10 12 11 9 11 13 11 7 7 6 6 6 5 5 4 4 4 3 2
9 9 10 12 10 11 12 12 11 11 11 11 12 12 11 11 12 12 13 13 11 9 7 7 7 8 9 8 6 7 8 8 7 7 7 7 7 5 8 12 9 9 10 9 10 11 13 10 10 9 8 10 14 11 11 10 10 11 10 8 7 9 9 9 8 6 6 7 6 4 4 4 4 2
8 10 11 11 12 12 11 11 11 11 11 12 12 13 12 11 11 11 11 11 10 9 9 10 9 9 8 8 7 7 9 8 8 7 9 8 7 7 10 11 8 9 11 9 9 10 11 12 13 13 12 10 9 13 14 10 8 8 10 9 10 9 8 7 8 8 6 6 5 5 4 2 3 4
8 9 10 10 10 11 10 11 11 11 10 11 11 11 12 12 11 11 10 10 9 8 8 8 10 9 8 9 8 8 8 8 9 9 9 8 7 9 10 11 10 9 10 10 9 8 10 11 13 13 14 13 12 9 8 12 9 9 9 9 10 10 7 7 7 8 8 7 8 6 4 3 1 1
8 9 10 10 10 10 10 10 10 9 10 10 9 9 9 10 11 11 10 10 9 10 10 10 9 8 8 8 7 8 8 9 9 9 9 9 10 9 9 10 9 9 9 9 8 7 8 10 11 12 12 12 12 11 15 9 11 9 8 7 8 9 8 7 8 7 5 5 5 7 5 3 2 3
8 8 9 9 10 10 10 10 9 9 9 9 9 9 10 10 9 10 10 9 9 10 10 9 9 8 8 8 8 8 8 8 9 9 10 10 10 10 10 9 9 9 9 8 7 6 6 8 9 11 11 9 10 7 5 12 11 7 11 6 7 8 8 8 7 6 6 5 5 7 5 4 3 1
8 8 8 9 9 9 9 9 9 9 9 9 9 9 9 9 9 9 9 8 9 8 8 8 8 8 8 8 8 9 8 8 7 8 8 8 8 8 9 8 8 8 8 7 6 6 6 8 9 10 11 10 9 8 4 3 9 10 7 9 5 6 8 7 7 6 4 5 5 5 6 5 4 4
7 7 7 8 7 8 8 8 8 9 9 9 9 9 9 9 8 9 9 9 9 8 8 8 8 8 8 8 7 7 7 7 7 7 7 7 7 7 7 7 6 6 6 6 6 6 7 7 8 8 9 9 9 8 6 2 3 5 9 4 8 4 6 7 7 6 4 3 4 2 4 6 5 4
6 6 6 6 6 6 7 7 7 7 8 8 8 8 9 9 9 9 9 9 9 9 8 9 8 8 8 8 7 7 7 7 7 6 6 6 6 6 6 6 6 6 7 7 6 6 6 7 7 7 9 10 10 9 8 7 4 0 6 9 6 7 4 7 6 5 6 5 5 6 6 3 6 7
7 6 5 5 5 5 5 6 7 7 7 7 7 7 8 8 8 8 8 8 8 8 8 7 8 7 7 7 7 6 7 8 7 6 6 6 6 6 6 5 5 5 6 6 6 5 6 5 6 7 6 6 6 6 6 6 4 2 4 8 9 4 7 6 5 7 5 5 6 7 5 3 3 0
7 7 7 6 5 5 6 6 6 6 8 8 7 7 7 7 7 8 7 7 5 6 7 7 6 6 6 6 6 6 6 5 6 6 6 6 6 5 5 6 5 5 6 5 6 6 5 3 4 8 10 8 7 7 8 7 7 4 5 4 8 9 5 4 7 7 5 4 6 7 7 5 5 2
6 7 6 7 7 7 6 6 6 6 6 6 6 6 6 6 6 8 8 8 8 7 6 6 6 6 6 5 5 5 5 5 5 5 5 5 6 6 5 5 5 4 6 6 6 6 4 5 7 9 8 6 6 7 6 7 7 5 3 2 3 6 9 11 9 7 9 10 8 6 4 3 3 3
7 6 6 6 6 6 7 7 6 6 6 6 6 6 6 6 6 7 6 6 6 6 6 6 6 5 5 5 5 4 5 5 5 4 3 2 3 4 3 2 3 3 4 5 4 5 5 6 7 7 5 5 3 5 7 6 6 5 4 4 3 3 5 8 11 12 12 10 5 4 5 6 5 3
6 6 6 6 6 7 7 7 6 6 5 5 6 6 6 6 6 6 5 5 6 5 5 5 5 6 5 5 5 5 5 5 5 5 4 2 1 2 3 3 4 4 4 5 5 5 5 5 5 6 5 4 3 5 6 5 5 5 5 3 2 4 4 4 6 7 8 10 10 7 8 6 4 8
6 5 5 5 6 6 7 7 7 6 5 5 5 6 6 6 6 6 6 6 6 6 6 5 6 5 6 5 6 6 5 5 5 5 4 4 4 4 4 4 4 5 4 3 5 4 3 4 4 4 4 5 4 5 5 5 5 4 3 3 4 2 2 1 4 6 6 5 7 8 6 9 11 12
Wind_Direction
255 238 237 241 242 231 222 221 221 212 204 200 194 195 203 208 213 199 213 210 209 217 196 190 204 194 189 185 172 192 193 182 171 175 174 176 177 185 179 178 177 179 183 185 187 188 180 177 178 170 167 170 181 188 180 177 179 182 186 189 183 169 159 164 173 174 174 172 165 156 140 130 135 133
249 244 236 234 239 225 210 218 216 218 203 202 200 204 199 197 211 206 202 219 199 202 200 205 188 186 187 175 179 188 188 176 175 176 175 177 180 182 180 178 176 177 181 183 187 185 185 179 176 171 167 172 181 185 179 178 182 187 193 190 177 165 160 166 174 179 157 112 128 132 136 155 156 165
244 244 244 237 237 216 211 212 212 210 213 206 194 208 197 214 222 218 199 219 234 175 195 208 195 181 186 176 173 180 184 178 180 175 174 183 180 177 181 178 176 177 180 183 185 183 185 179 176 174 170 175 181 183 181 180 185 190 192 183 173 165 163 168 174 171 160 151 139 137 135 155 176 193
246 242 243 241 235 216 213 222 213 203 204 206 199 200 199 206 213 209 205 221 234 202 199 197 198 182 178 173 173 178 175 179 183 174 181 181 171 174 182 182 177 178 179 182 184 183 181 177 175 174 173 177 180 184 184 183 188 190 189 180 172 164 163 167 172 176 179 172 169 167 172 187 204 221
247 244 241 240 230 218 220 215 208 208 201 203 207 204 197 204 203 204 203 213 233 248 221 189 196 186 165 173 185 173 173 169 187 182 171 165 172 177 178 184 184 179 177 179 181 180 178 177 174 174 176 179 182 184 184 183 188 191 190 183 177 171 169 171 174 179 182 176 181 178 178 196 219 243
266 251 239 238 240 230 232 218 214 207 205 207 217 214 204 203 201 201 200 221 223 228 194 209 200 163 179 179 184 178 173 178 176 172 171 172 177 178 175 177 190 185 176 176 179 178 178 178 176 174 176 179 181 184 182 183 188 192 192 188 187 184 181 179 174 173 171 171 171 179 188 206 253 285
271 264 262 256 239 226 233 238 235 238 232 210 209 210 202 210 205 199 205 210 222 219 216 197 182 177 190 189 189 185 181 177 176 171 174 172 177 182 177 182 184 191 179 176 177 179 180 180 178 176 178 180 182 184 184 186 188 192 192 192 195 193 191 182 169 169 174 181 185 187 183 188 223 243
280 263 258 255 245 217 219 217 214 211 216 219 226 224 217 210 211 202 202 212 214 213 215 204 193 186 182 198 187 184 176 172 177 182 170 166 175 176 181 186 185 192 188 178 178 180 182 183 181 180 181 182 184 186 187 188 190 192 193 194 197 197 193 178 171 172 181 184 179 174 171 185 236 256
286 265 261 270 254 227 234 226 217 204 206 216 217 229 222 210 205 203 207 212 210 214 225 212 207 180 192 187 183 177 171 172 177 172 170 175 179 180 182 185 193 183 194 184 181 182 184 185 185 184 185 186 187 189 190 190 191 193 195 196 196 196 188 179 178 179 178 178 181 188 187 206 238 253
301 266 264 266 259 243 237 238 222 203 212 218 228 234 227 206 192 205 211 214 199 203 218 197 197 181 180 179 190 181 173 170 170 175 166 163 177 174 173 194 189 175 184 189 189 186 187 189 188 188 189 190 191 192 192 193 194 196 199 199 197 192 184 182 181 177 179 184 185 180 182 198 231 247
313 301 270 266 269 259 241 240 227 213 215 215 222 231 231 213 203 207 214 209 204 212 211 198 193 190 189 175 180 186 179 179 176 165 150 175 186 182 184 186 194 174 188 204 188 185 187 189 191 193 192 192 194 194 194 195 197 200 202 201 197 187 184 183 180 179 182 185 177 176 183 198 224 243
311 311 305 279 266 262 253 242 236 224 226 226 231 226 221 215 205 213 216 203 198 199 207 199 197 194 171 196 185 163 166 166 169 172 172 178 177 189 189 192 183 179 176 185 191 201 192 195 195 192 197 199 198 197 197 198 199 203 204 201 192 186 184 181 179 182 182 177 173 178 186 201 214 212
324 319 317 310 296 295 289 269 245 232 225 227 235 223 213 209 197 202 203 207 190 198 199 204 198 182 184 190 172 171 182 184 185 179 183 175 176 176 179 196 195 181 178 183 179 189 184 180 189 185 192 207 202 204 200 204 205 205 203 197 190 188 183 179 181 181 178 174 175 180 190 199 199 163
355 354 348 337 334 331 323 310 289 260 239 237 234 223 216 210 202 200 191 198 203 198 199 199 196 183 194 189 193 188 193 184 150 163 170 174 172 165 190 194 205 178 175 170 185 197 182 184 187 187 202 203 192 201 200 210 204 204 197 190 189 185 180 180 180 177 175 173 172 178 183 184 166 153
353 353 357 355 350 345 342 326 303 276 262 254 247 236 226 216 203 198 193 203 197 181 202 203 202 199 194 196 192 193 184 179 175 178 177 162 153 177 174 196 209 191 169 183 182 195 184 177 189 196 203 195 192 199 210 212 207 196 188 187 185 181 180 179 177 172 170 168 171 175 176 163 152 146
352 353 349 349 347 345 340 352 351 329 291 261 256 252 236 233 219 208 192 190 195 195 195 200 208 204 201 193 191 192 179 182 179 175 162 168 182 180 187 194 193 187 169 167 184 198 177 184 194 197 204 196 198 204 209 203 200 192 185 183 180 177 178 178 172 168 166 167 169 170 154 142 130 127
357 352 350 351 349 343 347 353 346 338 328 301 268 258 251 243 242 238 224 207 201 193 188 202 204 203 203 191 200 195 187 172 177 171 173 187 194 188 188 197 191 154 172 157 176 194 190 181 193 204 204 194 200 210 206 191 188 188 181 177 174 176 176 172 167 164 165 168 167 145 135 133 130 118
354 354 352 351 345 341 344 346 343 336 326 321 300 272 247 241 229 230 230 218 218 205 192 190 200 210 197 202 201 191 173 169 179 173 187 190 192 190 199 192 189 155 165 176 171 185 192 190 187 206 204 188 198 205 193 188 184 180 175 174 174 174 170 166 163 162 166 159 138 133 129 122 116 110
353 350 354 350 343 336 333 342 342 331 326 316 301 280 257 230 226 217 218 213 216 211 206 203 210 209 205 212 200 185 182 186 184 185 191 189 180 154 78 69 127 152 196 174 152 198 189 168 181 211 173 173 192 191 181 178 177 175 173 172 172 169 165 162 162 163 148 131 125 122 120 115 112 108
352 345 351 353 345 344 335 341 339 335 324 311 303 287 266 246 226 231 188 83 256 247 233 223 221 217 221 227 234 195 183 192 180 142 67 80 121 151 164 197 181 185 197 186 181 189 147 173 173 154 64 108 130 86 187 184 174 174 171 170 168 164 161 160 158 142 130 122 121 120 118 116 113 110
351 348 355 355 350 339 337 342 339 339 333 313 310 292 275 257 209 230 156 50 21 260 255 261 221 192 198 200 204 216 198 174 130 122 142 179 180 173 185 199 168 203 172 200 197 142 133 161 131 103 42 56 62 27 66 160 181 171 167 163 160 158 157 150 135 131 126 125 124 122 120 117 114 107
350 351 354 358 355 346 343 341 341 342 338 329 322 311 289 270 249 209 170 165 59 51 62 93 119 133 147 180 192 203 198 175 164 168 183 187 183 191 188 189 189 170 169 199 162 132 152 129 113 107 116 81 35 39 45 103 131 143 147 150 149 148 140 133 135 130 128 126 124 123 121 118 112 98
349 346 350 353 354 352 343 342 347 345 344 326 323 311 303 277 254 231 163 155 110 127 118 109 113 96 98 104 121 98 201 197 182 187 193 173 181 191 195 179 130 141 221 202 172 156 149 143 173 139 113 57 38 47 76 117 124 130 128 125 122 127 130 132 131 131 129 129 129 129 127 124 117 108
344 346 345 345 350 349 346 348 349 348 343 338 326 329 317 294 262 223 130 142 156 136 126 124 102 110 93 72 40 23 77 119 161 199 200 182 185 190 187 177 176 187 188 183 173 163 158 164 162 195 159 139 146 121 78 106 110 108 114 112 111 119 114 113 117 127 133 133 134 133 132 135 131 119
342 343 342 338 345 346 348 350 349 351 345 342 335 337 316 275 290 280 145 131 121 113 108 76 56 40 57 55 50 51 49 48 70 99 79 101 196 183 179 174 187 184 207 182 169 145 155 173 158 136 68 69 131 129 113 93 94 112 123 126 126 129 113 103 105 106 123 131 134 138 144 144 131 132
348 343 338 337 342 344 349 350 351 353 351 348 358 340 335 321 267 223 135 127 121 107 95 104 88 72 71 61 45 45 39 24 11 26 85 94 70 50 115 172 169 163 199 178 169 162 136 169 166 148 133 118 119 132 137 131 117 110 104 114 122 129 125 122 116 118 120 125 128 144 154 148 139 137
343 341 339 338 342 346 351 353 353 357 357 357 357 0 7 3 348 295 113 123 115 103 99 86 76 55 50 61 56 46 41 32 53 73 60 79 86 79 71 64 57 86 94 114 177 179 158 152 172 155 151 140 136 136 138 148 145 128 113 120 120 118 121 123 121 120 112 104 104 106 104 106 123 130
340 342 342 342 343 352 353 356 357 0 4 1 359 12 17 16 11 16 26 64 88 99 87 79 67 53 45 59 66 60 49 58 78 76 78 72 77 90 82 70 72 69 70 61 66 104 157 147 152 158 145 145 145 153 152 59 116 142 133 127 120 126 126 118 113 108 108 113 115 112 111 113 108 106
343 344 346 348 351 351 357 358 2 5 4 2 5 11 21 26 23 14 18 22 41 62 73 80 72 58 37 39 63 71 77 57 51 80 75 73 81 88 83 76 67 57 50 51 54 41 65 142 146 144 149 151 147 154 151 152 145 139 136 135 134 139 130 125 124 125 125 123 128 133 140 138 133 126
344 350 352 353 352 355 0 4 9 9 4 4 10 13 16 27 31 25 17 21 37 41 42 60 67 55 32 16 28 59 72 73 55 51 88 100 86 80 90 83 62 54 48 48 59 67 69 69 113 123 111 95 127 139 139 131 124 129 133 132 130 114 118 125 124 128 135 139 140 142 135 126 136 136
348 352 359 357 356 1 2 11 13 15 9 12 11 11 15 19 23 35 30 21 28 24 33 42 45 44 46 29 36 49 59 64 50 47 61 76 81 100 101 96 87 67 47 46 50 55 70 74 60 106 120 113 89 91 97 102 115 123 121 131 142 144 147 127 128 133 139 129 121 105 97 88 88 84
347 357 357 2 6 7 12 11 13 13 13 15 13 13 13 17 17 21 29 33 27 24 25 40 43 44 39 37 20 44 54 55 45 39 60 68 71 39 86 85 83 87 74 52 53 53 61 59 73 66 76 107 116 114 103 107 113 117 117 124 117 117 132 144 142 139 135 127 114 117 123 127 123 112
358 10 8 7 8 12 12 11 11 10 14 13 12 16 14 13 17 20 24 27 18 4 25 35 38 39 41 36 18 39 53 45 44 33 57 43 71 73 79 87 88 86 90 79 69 62 70 77 70 71 69 61 82 113 115 104 95 106 116 117 123 125 136 135 136 136 133 117 124 128 133 140 135 149
17 17 12 8 5 6 9 10 11 10 13 14 14 13 11 15 17 18 18 19 11 10 24 30 42 40 42 39 28 40 49 50 49 46 57 55 51 74 80 85 79 77 82 85 79 81 86 87 85 80 76 69 55 44 91 117 115 112 112 126 125 133 140 139 140 150 155 153 146 140 135 127 118 124
20 14 16 9 6 6 8 11 10 8 11 15 16 15 16 19 15 15 18 11 10 18 23 29 35 39 44 41 35 45 43 52 54 53 54 62 58 61 68 79 81 79 83 84 81 80 86 89 96 92 86 84 73 52 31 46 120 104 105 104 126 133 145 150 152 156 146 133 141 134 134 117 65 13
14 13 17 13 10 6 10 9 7 10 12 13 17 15 21 21 17 18 17 7 22 23 23 22 19 20 27 35 40 42 42 48 51 53 55 59 64 61 57 63 72 74 74 72 68 48 62 78 89 94 95 91 97 92 36 18 36 120 118 127 129 137 143 151 158 149 139 144 156 140 134 139 140 104
15 14 17 20 14 11 12 10 10 12 13 13 14 18 20 18 13 14 11 15 29 27 26 27 23 13 21 27 39 41 40 43 51 49 54 50 57 68 77 62 57 60 64 53 55 60 62 67 68 88 96 97 97 101 54 335 21 23 117 125 129 138 144 142 137 132 147 147 153 134 136 136 158 191
11 10 17 19 17 10 11 10 9 12 11 11 12 13 15 14 13 11 9 21 23 25 27 34 35 31 26 23 30 37 41 40 46 52 51 53 62 58 63 77 69 68 76 70 67 72 84 93 101 107 114 117 121 116 113 35 21 13 354 134 136 151 127 128 127 135 103 48 91 64 95 128 157 172
12 7 9 10 8 12 12 4 6 6 5 8 11 11 9 13 15 18 20 23 23 26 27 32 34 35 40 38 39 40 44 43 48 49 54 54 61 73 72 74 75 63 73 64 61 67 81 97 115 126 129 137 144 152 140 128 100 191 8 19 119 126 133 131 127 119 121 103 85 70 57 72 75 77
5 8 3 355 356 1 6 7 6 359 359 357 1 2 12 14 13 19 24 24 26 28 34 34 32 33 34 35 38 42 47 49 48 45 56 67 65 66 66 68 83 92 87 85 81 65 85 113 131 137 133 117 114 109 112 103 99 58 47 24 13 122 151 133 127 130 108 122 127 102 101 94 94 16
2 7 1 359 349 353 352 358 6 8 6 359 2 3 11 11 14 14 16 22 24 24 25 25 31 37 36 38 42 47 50 44 42 43 56 66 71 77 83 84 74 81 96 88 92 86 78 74 89 94 97 102 111 109 96 99 98 90 56 9 21 38 63 114 140 138 133 152 125 127 133 146 143 113
357 1 355 359 5 5 360 348 348 1 7 4 3 3 3 9 6 8 13 15 20 22 28 24 19 25 31 34 27 33 49 50 52 46 48 72 82 78 77 90 96 90 98 105 103 101 93 95 103 95 100 105 105 107 118 126 128 120 116 66 16 21 54 63 67 88 135 147 134 112 87 55 60 86
357 354 358 351 357 7 9 2 3 357 346 355 4 1 10 9 10 14 15 14 13 17 13 12 11 15 12 18 34 48 45 34 44 58 58 61 96 107 95 77 100 109 106 98 83 88 87 96 106 107 97 82 73 109 127 135 127 127 116 101 87 53 46 46 65 72 69 55 68 145 169 160 137 168
351 354 352 350 360 2 2 4 4 3 355 350 360 12 16 18 20 14 16 17 18 12 9 11 10 14 3 3 23 38 37 34 39 53 62 57 60 78 80 72 77 84 81 85 87 76 84 95 113 121 109 101 95 103 124 118 127 131 136 133 86 83 77 53 68 80 70 49 39 58 82 104 137 160
347 350 349 354 358 359 360 360 5 4 5 360 11 22 16 18 17 13 17 16 16 12 14 12 18 18 14 16 30 33 26 41 51 46 54 56 58 66 65 71 79 79 81 95 97 81 82 98 102 99 93 122 129 138 150 140 135 127 115 110 122 113 87 72 92 80 73 53 10 22 56 86 91 93